Regional Weather Roundup
Issued by NWS Jackson, KY

Home | Current Version | Previous Version | Graphics & Text | Print | Product List | Glossary On
Versions: 1 2 3 4 5 6 7 8 9 10 11 12 13 14 15 16 17 18 19 20 21 22 23 24 25 26 27 28 29 30 31 32 33 34 35 36 37 38 39 40 41 42 43 44 45 46 47 48 49 50
000
ASUS43 KJKL 220611
RWRJKL

EAST KENTUCKY HOURLY WEATHER ROUNDUP
NATIONAL WEATHER SERVICE JACKSON KY
200 AM EDT FRI AUG 22 2014

NOTE: "FAIR" INDICATES FEW OR NO CLOUDS BELOW 12,000 FEET WITH
NO SIGNIFICANT WEATHER AND/OR OBSTRUCTIONS TO VISIBILITY.

* THESE REPORTS ARE NOT UNDER NWS QUALITY CONTROL AND MAY NOT
  REPORT WEATHER SUCH AS PRECIPITATION AND FOG.

KYZ079-080-083-085-087-088-110-112-115-119-120-220700
...EASTERN KENTUCKY...

CITY           SKY/WX    TMP DP  RH WIND       PRES   REMARKS
JACKSON          N/A     71  68  90 CALM      30.10F
6HR MIN TEMP:  70; 6HR MAX TEMP:  73;

LONDON           N/A     75  69  81 S3        30.11F
6HR MIN TEMP:  74; 6HR MAX TEMP:  84;

SOMERSET*        N/A     73  73 100 CALM      30.10F
MONTICELLO*      N/A     71  70  97 CALM      30.11S
6HR MIN TEMP:  71; 6HR MAX TEMP:  83;

WILLIAMSBURG*  CLEAR     72  72 100 CALM      30.11
MIDDLESBORO*     N/A     70  69  99 CALM      30.12F
6HR MIN TEMP:  70; 6HR MAX TEMP:  81;

HARLAN APT*    CLOUDY    68  68 100 MISG      30.14F VSB 1/4
HAZARD APT*    CLEAR     72  72 100 CALM      30.10F
BLACK MTN*       N/A     66  66 100 S6          N/A
PIKEVILLE APT* CLEAR     70  68  94 CALM      30.10F
BIG SANDY*       N/A     69  68  97 S3        30.08F
6HR MIN TEMP:  69; 6HR MAX TEMP:  71;

MOREHEAD APT*    N/A     73  72  94 SW3       30.08F
$$

KYZ035-036-041-042-044-050-067-078-099-220700
...CENTRAL KENTUCKY...

CITY           SKY/WX    TMP DP  RH WIND       PRES   REMARKS
MT STERLING*     N/A     73  73 100 SW6       30.07F
FLEMING/MASON* MOCLDY    73  72  94 S6        30.05F
DANVILLE*        N/A     77  70  78 CALM      30.09F
RICHMOND*        N/A     75  70  83 SW3       30.08S
LEXINGTON        N/A     78  72  81 SW9       30.06F
6HR MIN TEMP:  77; 6HR MAX TEMP:  84;

FRANKFORT        N/A     76  72  87 SW8       30.04F
6HR MIN TEMP:  74; 6HR MAX TEMP:  84;

$$

KYZ091>093-OHZ055-061-077-WVZ005-015-034-035-042-220700
...SOUTHERN OHIO/WEST VIRGINIA...

CITY           SKY/WX    TMP DP  RH WIND       PRES   REMARKS
COVINGTON      LGT RAIN  72  70  94 SE3       30.04F
COLUMBUS       TSTM      73  70  88 CALM      30.00S FOG
DAYTON         LGT RAIN  72  68  87 W15       30.02F
WILMINGTON     LGT RAIN  70  66  87 W10       30.03F
HUNTINGTON       N/A     69  69 100 S5        30.04F
CHARLESTON     MOCLDY    70  70 100 CALM      30.05F FOG
PINEVILLE*     FOG       68  68 100 MISG      30.17F VSB 1/4
BECKLEY          N/A     66  63  90 SW7       30.15F
BLUEFIELD        N/A     67  63  87 W6        30.18F
$$

VAZ002-007-008-TNZ017-027-036-066-071-220700
...SOUTHWEST VIRGINIA/EAST TENNESSEE...

CITY           SKY/WX    TMP DP  RH WIND       PRES   REMARKS
WISE*            N/A     70  70 100 SW7       30.20F
JONESVILLE*      N/A     68  68 100 CALM      30.16F
ABINGDON*      CLOUDY    69  69 100 CALM      30.18S
BRISTOL        CLOUDY    72  70  93 CALM      30.14F FOG
KNOXVILLE        N/A     74  70  87 S3        30.10F
OAK RIDGE        N/A     75  73  93 CALM      30.12F
CROSSVILLE       N/A     72  68  87 W3        30.17F
NASHVILLE        N/A     78  73  84 S5        30.09S
$$

...KEY TO REMARKS...
VSB - VISIBILITY IN MILES
WCI - WIND CHILL INDEX
HX  - HEAT INDEX

$$


USA.gov is the U.S. government's official web portal to all federal, state and local government web resources and services.